This is the latest recevied weather packets stored in our database for station/object YO8SHU-10. If no packets are shown the sender has not sent any weather packets the latest 10 day(s).
| Time | Temp. | Humidity | Pressure | Rain* | Wind** | Luminosity | Snow |
|---|---|---|---|---|---|---|---|
| 1777553985 | 10.56° C | 42% | 1030.4 hPa | - | - | - | - |
| 1777552185 | 11.11° C | 42% | 1030.6 hPa | - | - | - | - |
| 1777550384 | 11.67° C | 44% | 1030.8 hPa | - | - | - | - |
| 1777548584 | 11.67° C | 48% | 1030.9 hPa | - | - | - | - |
| 1777546784 | 10.56° C | 49% | 1031.1 hPa | - | - | - | - |
| 1777544984 | 11.11° C | 48% | 1031.2 hPa | - | - | - | - |
| 1777543183 | 12.22° C | 49% | 1031.2 hPa | - | - | - | - |
| 1777541383 | 11.67° C | 51% | 1031.4 hPa | - | - | - | - |
| 1777539583 | 10° C | 55% | 1031.5 hPa | - | - | - | - |
| 1777537783 | 8.89° C | 55% | 1031.6 hPa | - | - | - | - |
| 1777535983 | 8.89° C | 55% | 1031.5 hPa | - | - | - | - |
| 1777534183 | 7.78° C | 60% | 1031.6 hPa | - | - | - | - |
| 1777532380 | 7.78° C | 61% | 1031.6 hPa | - | - | - | - |
| 1777530580 | 6.67° C | 62% | 1031.5 hPa | - | - | - | - |
| 1777528780 | 6.67° C | 69% | 1031.4 hPa | - | - | - | - |
| 1777526980 | 6.67° C | 68% | 1031.2 hPa | - | - | - | - |
| 1777525180 | 6.11° C | 76% | 1031.1 hPa | - | - | - | - |
| 1777523380 | 6.11° C | 83% | 1031 hPa | - | - | - | - |
| 1777521580 | 5.56° C | 91% | 1030.7 hPa | - | - | - | - |
| 1777519779 | 5.56° C | 100% | 1030.4 hPa | - | - | - | - |
| 1777517980 | 5.56° C | 98% | 1030.3 hPa | - | - | - | - |
| 1777516179 | 5.56° C | 97% | 1030.2 hPa | - | - | - | - |
| 1777514379 | 5.56° C | 100% | 1030 hPa | - | - | - | - |
| 1777512578 | 5.56° C | 99% | 1030 hPa | - | - | - | - |
| 1777510778 | 6.11° C | 99% | 1029.9 hPa | - | - | - | - |
* Rain since midnight (hover to see other rain measurements)
** Current wind speed in m/s (hover to see current wind gust speed)